Terminal Aerodrome Forecast
Issued by NWS Buffalo, NY

Home | Current Version | Previous Version | Text Only | Print | Product List | Glossary On
Versions: 1 2 3 4 5 6 7 8 9 10 11 12 13 14 15 16 17 18 19 20 21 22 23 24 25 26 27 28 29 30 31
000
FTUS41 KBUF 062300
TAFROC
TAF
KROC 062335Z 0700/0724 20004KT P6SM BKN250
     FM070500 21010KT P6SM BKN130
     FM070900 23011KT P6SM OVC200
     FM071200 23011KT P6SM OVC040
     FM071400 25012G20KT P6SM OVC030
     FM071500 25013G21KT P6SM -SN OVC025
     FM071900 25011G21KT 2SM -SHSN OVC020
     FM072100 24008KT 2SM -SHSN OVC020
     FM072300 18004KT 2SM -SHSN OVC020=

USA.gov is the U.S. government's official web portal to all federal, state and local government web resources and services.